DMSP 5D-2 F11 DEB

基本信息
目录编号:
28317
目录名称:
DMSP 5D-2 F11 DEB
国际标识:
1991-082AE
轨道中心:
EARTH
物体状态:
在轨
发射日期:
1991-11-28 UTC
轨道信息
数据来源: 国际轨道数据
星历时间: 2026-07-12T21:32:39+0800
半长轴: 7201.955km
偏心率: 0.0117204
轨道倾角: 98.860°
近地点辐角: 217.045°
升交点赤经: 212.898°
平近点角: 271.409°
近地点: 739.408km
远地点: 908.228km
周期: 101.376分钟
每日圈数: 14.204541
详细信息
发射场:
AFWTR
轨道高度:
LEO
数据来源:
AOE Integration Group
参考系:
TEME
时间系统:
UTC
历元类型:
SGP4
2D轨道图
3D轨道图
轨道高度分析图
轨道倾角分析图
轨道综合分析图
查看轨道综合分析图